TOURFACTS.DK  
Stats and Facts from Tour de France.

Tour de France 2018 starts in 254 days
  Riders   Stages   Teams   Summits   Yearly  


 
Search by year

 2017 - St. 21:  14824 starters.
  5131 different riders.
  634 teams.
  2232 stages.
  454 restdays.
  439589.60 km.
  5653 abandonnees.


Top 3
Christopher Froome86:20:55
Rigoberto Uran86:21:49
Romain Bardet86:23:15
Warren Barguil169 pt.
Primoz Roglic80 pt.
Thomas De Gendt64 pt.
Michael Matthews359 pt.
André Greipel234 pt.
Edvald Boasson Hagen220 pt.
Simon Yates86:27:09
Louis Meintjes86:29:15
Emanuel Buchmann86:54:16
Facts from Tour de France 2014
  |   Stages.  |   Stage winners.  |   Days in yellow  |   Average speed.  |   Route.  |   Teams.  |   All riders.  |   Rookies.  |   Withdrawls.  |  

  |   GC.  |   Polka  |   Green  |   White  |   Summits. (In tour)  |   Summits. (Points)  |   Miscellaneous.  |  

Stage 16 on 22 - 07 - 2014
         Owning:    Vincenzo Nibali      Rafal Majka      Peter Sagan      Thibaut Pinot  

Pick a stage:  1 2 3 4 5 6 7 8 9 10 11 12 13 14 15 16 17 18 19 20 21
  CarcassonneBagnères-de-Luchon | Dist: 237.50 km.
Cat: 4Côte de FanjeauxPOLRafal Majka
1 point
 
Cat: 4Côte De PamiersITAMatteo Montaguti
1 point
 
Cat: 2Col de Portet-d'AspetFRAThomas Voeckler
5 points
 
Cat: 3Col des AresFRAThomas Voeckler
2 points
 
Cat: HPort de BalèsCOLJosé Serpa
25 points
 

Average speed for all riders in stage:  36,887 km./hr.
    Place:Name:Team:Time:Km/h:
AUSMichael RogersRUSTinkoff Saxo06:07:10  +  00:00:00=38,811 
FRAThomas VoecklerFRATeam Europcar06:07:19  +  00:00:09=38,795 
BLRVasil KiryienkaGBRSky Procycling06:07:19  +  00:00:09=38,795 
4 COLJosé SerpaITALampre-Merida06:07:19  +  00:00:09=38,795 
5 FRACyril GautierFRATeam Europcar06:07:19  +  00:00:09=38,795 
6 BELGreg Van AvermaetUSABMC Racing Team06:07:23  +  00:00:13=38,788 
7 POLMichal KwiatkowskiBELOmega Pharma – Quick Step06:07:46  +  00:00:36=38,747 
8 ITAMatteo MontagutiFRAAg2r La Mondiale06:08:00  +  00:00:50=38,723 
9 NEDTom-Jelte SlagterUSAGarmin Sharp06:09:21  +  00:02:11=38,581 
10 FRATony GallopinBELLotto-Belisol Team06:09:21  +  00:02:11=38,581 
11 BELJan BakelantsBELOmega Pharma – Quick Step06:10:43  +  00:03:33=38,439 
12 FRAFlorian VachonFRABretagne - Séché Environnement06:10:55  +  00:03:45=38,418 
13 FRAAnthony DelaplaceFRABretagne - Séché Environnement06:11:57  +  00:04:47=38,312 
14 FRAKévin RezaFRATeam Europcar06:11:57  +  00:04:47=38,312 
15 AUTBernhard EiselGBRSky Procycling06:15:24  +  00:08:14=37,960 
16 FRAJérémy RoyFRAFDJ.fr06:15:42  +  00:08:32=37,929 
17 FRAThibaut PinotFRAFDJ.fr06:15:42  +  00:08:32=37,929 
18 ESPAlejandro ValverdeESPMovistar Team06:15:42  +  00:08:32=37,929 
19 FRAJean-Christophe PeraudFRAAg2r La Mondiale06:15:42  +  00:08:32=37,929 
20 ITAVincenzo NibaliKAZAstana Pro Team06:15:42  +  00:08:32=37,929 
21 CZELeopold KönigDEUTeam NetApp – Endura06:15:42  +  00:08:32=37,929 
22 BELJens KeukeleireAUSOrica - GreenEDGE06:15:45  +  00:08:35=37,924 
23 GERRoger KlugeCHEIAM Cycling06:16:17  +  00:09:07=37,870 
24 FRAJohn GadretESPMovistar Team06:16:22  +  00:09:12=37,862 
25 ESPJon Izaguirre InsaustiESPMovistar Team06:16:22  +  00:09:12=37,862 
26 NEDLaurens ten DamNLDBelkin Pro Cycling06:16:53  +  00:09:43=37,810 
27 FRAArnold JeannessonFRAFDJ.fr06:16:53  +  00:09:43=37,810 
28 ESPHaimar ZubeldiaUSATrek Factory Racing06:17:10  +  00:10:00=37,782 
29 FRASamuel DumoulinFRAAg2r La Mondiale06:17:32  +  00:10:22=37,745 
30 FRARomain BardetFRAAg2r La Mondiale06:17:32  +  00:10:22=37,745 
31 FRAPierre RollandFRATeam Europcar06:18:03  +  00:10:53=37,693 
32 BELJurgen Van Den BroeckBELLotto-Belisol Team06:18:42  +  00:11:32=37,629 
33 NEDBauke MollemaNLDBelkin Pro Cycling06:18:42  +  00:11:32=37,629 
34 LUXFränk SchleckUSATrek Factory Racing06:18:42  +  00:11:32=37,629 
35 FRAAmaël MoinardUSABMC Racing Team06:19:18  +  00:12:08=37,569 
36 SVKPeter VelitsUSABMC Racing Team06:19:18  +  00:12:08=37,569 
37 USATejay Van GarderenUSABMC Racing Team06:19:18  +  00:12:08=37,569 
38 JPNChristopher HornerITALampre-Merida06:19:18  +  00:12:08=37,569 
39 WALGeraint ThomasGBRSky Procycling06:19:18  +  00:12:08=37,569 
40 ESPLuis Angel MateFRACofidis – Solutions Crédits06:19:18  +  00:12:08=37,569 
41 FRAChristophe RiblonFRAAg2r La Mondiale06:19:18  +  00:12:08=37,569 
42 RUSYury TrofimovRUSTeam Katusha06:19:18  +  00:12:08=37,569 
43 URSTanel KangertKAZAstana Pro Team06:19:18  +  00:12:08=37,569 
44 LUXBen GastauerFRAAg2r La Mondiale06:19:18  +  00:12:08=37,569 
45 NEDSteven KruijswijkNLDBelkin Pro Cycling06:19:18  +  00:12:08=37,569 
46 POLBartosz HuzarskiDEUTeam NetApp – Endura06:19:18  +  00:12:08=37,569 
47 USAPeter StetinaUSABMC Racing Team06:19:18  +  00:12:08=37,569 
48 FRASylvain ChavanelCHEIAM Cycling06:20:50  +  00:13:40=37,418 
49 FRABrice FeilluFRABretagne - Séché Environnement06:21:30  +  00:14:20=37,353 
50 FRAJérôme PineauCHEIAM Cycling06:21:30  +  00:14:20=37,353 
51 SUIMichael AlbasiniAUSOrica - GreenEDGE06:21:47  +  00:14:37=37,325 
52 ESPBeñat IntxaustiESPMovistar Team06:22:02  +  00:14:52=37,300 
53 JPNYukiya ArashiroFRATeam Europcar06:23:31  +  00:16:21=37,156 
54 CZEJan BártaDEUTeam NetApp – Endura06:23:31  +  00:16:21=37,156 
55 NEDTom DumoulinNLDTeam Giant - Shimano06:23:31  +  00:16:21=37,156 
56 FRAFlorian GuillouFRABretagne - Séché Environnement06:23:31  +  00:16:21=37,156 
57 AUSRichie PorteGBRSky Procycling06:23:31  +  00:16:21=37,156 
58 SUISébastien ReichenbachCHEIAM Cycling06:23:31  +  00:16:21=37,156 
59 SUIMarcel WyssCHEIAM Cycling06:23:31  +  00:16:21=37,156 
60 FRANicolas RocheRUSTinkoff Saxo06:23:31  +  00:16:21=37,156 
61 ESPJosé Joaquin RojasESPMovistar Team06:27:27  +  00:20:17=36,779 
62 ITAGiovanni ViscontiESPMovistar Team06:27:27  +  00:20:17=36,779 
63 GERJens VoigtUSATrek Factory Racing06:27:27  +  00:20:17=36,779 
64 ESPDavid LopezGBRSky Procycling06:27:27  +  00:20:17=36,779 
65 NEDBram TankinkNLDBelkin Pro Cycling06:27:27  +  00:20:17=36,779 
66 ESPMarkel IrizarUSATrek Factory Racing06:27:27  +  00:20:17=36,779 
67 ESPMikel NieveGBRSky Procycling06:27:27  +  00:20:17=36,779 
68 ESPJoaquim RodriguezRUSTeam Katusha06:27:27  +  00:20:17=36,779 
69 URSGatis SmukulisRUSTeam Katusha06:27:27  +  00:20:17=36,779 
70 DENLars BakBELLotto-Belisol Team06:27:27  +  00:20:17=36,779 
71 ITAMichele ScarponiKAZAstana Pro Team06:27:27  +  00:20:17=36,779 
72 SUIJakob FuglsangKAZAstana Pro Team06:27:27  +  00:20:17=36,779 
73 ESPJesus HerradaESPMovistar Team06:27:27  +  00:20:17=36,779 
74 BELJohan VansummerenUSAGarmin Sharp06:27:54  +  00:20:44=36,736 
75 FRASébastien MinardFRAAg2r La Mondiale06:27:54  +  00:20:44=36,736 
76 NEDKoen De KortNLDTeam Giant - Shimano06:27:54  +  00:20:44=36,736 
77 SUIMichael SchärUSABMC Racing Team06:27:54  +  00:20:44=36,736 
78 PORNelson OliveiraITALampre-Merida06:27:54  +  00:20:44=36,736 
79 SUIGregory RastUSATrek Factory Racing06:27:54  +  00:20:44=36,736 
80 PORTiago PintoDEUTeam NetApp – Endura06:27:54  +  00:20:44=36,736 
81 HRVKristijan DurasekITALampre-Merida06:27:54  +  00:20:44=36,736 
82 FRAMickaël CherelFRAAg2r La Mondiale06:27:54  +  00:20:44=36,736 
83 FRAAlexandre PichotFRATeam Europcar06:27:54  +  00:20:44=36,736 
84 ESPImanol ErvitiESPMovistar Team06:27:54  +  00:20:44=36,736 
85 PORJosé João PimentaDEUTeam NetApp – Endura06:27:54  +  00:20:44=36,736 
86 USABenjamin KingUSAGarmin Sharp06:27:54  +  00:20:44=36,736 
87 FRAArmindo FonsecaFRABretagne - Séché Environnement06:27:54  +  00:20:44=36,736 
88 AUSAdam HansenBELLotto-Belisol Team06:27:54  +  00:20:44=36,736 
89 PORSergio PaulinhoRUSTinkoff Saxo06:27:54  +  00:20:44=36,736 
90 URSRein TaaramäeFRACofidis – Solutions Crédits06:27:54  +  00:20:44=36,736 
91 USAMatthew BuscheUSATrek Factory Racing06:27:54  +  00:20:44=36,736 
92 NEDLieuwe WestraKAZAstana Pro Team06:27:54  +  00:20:44=36,736 
93 FRARudy MolardFRACofidis – Solutions Crédits06:27:54  +  00:20:44=36,736 
94 FRABlel KadriFRAAg2r La Mondiale06:27:54  +  00:20:44=36,736 
95 AUSSimon ClarkeAUSOrica - GreenEDGE06:31:02  +  00:23:52=36,442 
96 ITADaniel OssUSABMC Racing Team06:31:02  +  00:23:52=36,442 
97 FRAMickael DelageFRAFDJ.fr06:31:43  +  00:24:33=36,378 
98 FRAWilliam BonnetFRAFDJ.fr06:31:43  +  00:24:33=36,378 
99 GERMarcus BurghardtUSABMC Racing Team06:31:43  +  00:24:33=36,378 
100 NEDRoy CurversNLDTeam Giant - Shimano06:31:43  +  00:24:33=36,378 
101 NEDLars BoomNLDBelkin Pro Cycling06:31:43  +  00:24:33=36,378 
102 FRACédric PineauFRAFDJ.fr06:31:43  +  00:24:33=36,378 
103 FRAMatthieu LadagnousFRAFDJ.fr06:31:43  +  00:24:33=36,378 
104 FRAPerrig QuemeneurFRATeam Europcar06:31:43  +  00:24:33=36,378 
105 BELMaarten WynantsNLDBelkin Pro Cycling06:31:43  +  00:24:33=36,378 
106 FRABryan CoquardFRATeam Europcar06:31:43  +  00:24:33=36,378 
107 GERTony MartinBELOmega Pharma – Quick Step06:31:43  +  00:24:33=36,378 
108 GERPaul VossDEUTeam NetApp – Endura06:31:43  +  00:24:33=36,378 
109 POLRafal MajkaRUSTinkoff Saxo06:31:43  +  00:24:33=36,378 
110 POLMichal GolasBELOmega Pharma – Quick Step06:31:43  +  00:24:33=36,378 
111 NEDAlbert TimmerNLDTeam Giant - Shimano06:31:43  +  00:24:33=36,378 
112 NEDTom LeezerNLDBelkin Pro Cycling06:31:43  +  00:24:33=36,378 
113 FRANicolas EdetFRACofidis – Solutions Crédits06:31:43  +  00:24:33=36,378 
114 FRAYohann GèneFRATeam Europcar06:31:43  +  00:24:33=36,378 
115 FRAArnaud GérardFRABretagne - Séché Environnement06:31:43  +  00:24:33=36,378 
116 FRACyril LemoineFRACofidis – Solutions Crédits06:31:43  +  00:24:33=36,378 
117 AUSSimon GerransAUSOrica - GreenEDGE06:33:57  +  00:26:47=36,172 
118 BELJürgen RoelandtsBELLotto-Belisol Team06:33:57  +  00:26:47=36,172 
119 GERAndré GreipelBELLotto-Belisol Team06:33:57  +  00:26:47=36,172 
120 ITAMatteo TosattoRUSTinkoff Saxo06:33:57  +  00:26:47=36,172 
121 CANChristian MeierAUSOrica - GreenEDGE06:33:57  +  00:26:47=36,172 
122 GERMarcel SiebergBELLotto-Belisol Team06:33:57  +  00:26:47=36,172 
123 SUIMartin ElmigerCHEIAM Cycling06:33:57  +  00:26:47=36,172 
124 BELSep VanmarckeNLDBelkin Pro Cycling06:33:57  +  00:26:47=36,172 
125 FRARomain FeilluFRABretagne - Séché Environnement06:33:57  +  00:26:47=36,172 
126 NEDNiki TerpstraBELOmega Pharma – Quick Step06:33:57  +  00:26:47=36,172 
127 SLOKristjan KorenITACannondale Pro Cycling06:33:57  +  00:26:47=36,172 
128 ITAAlessandro PetacchiBELOmega Pharma – Quick Step06:33:57  +  00:26:47=36,172 
129 AUSHeinrich HausslerCHEIAM Cycling06:33:57  +  00:26:47=36,172 
130 ITAFabio SabatiniITACannondale Pro Cycling06:33:57  +  00:26:47=36,172 
131 AUSLuke DurbridgeAUSOrica - GreenEDGE06:33:57  +  00:26:47=36,172 
132 USAAlex HowesUSAGarmin Sharp06:33:57  +  00:26:47=36,172 
133 SVKPeter SaganITACannondale Pro Cycling06:33:57  +  00:26:47=36,172 
134 AUSZakkari DempsterDEUTeam NetApp – Endura06:33:57  +  00:26:47=36,172 
135 GERJohn DegenkolbNLDTeam Giant - Shimano06:33:57  +  00:26:47=36,172 
136 FRABenoît JarrierFRABretagne - Séché Environnement06:33:57  +  00:26:47=36,172 
137 CANSvein TuftAUSOrica - GreenEDGE06:33:57  +  00:26:47=36,172 
138 NORAlexander KristoffRUSTeam Katusha06:33:57  +  00:26:47=36,172 
139 GERAndreas SchillingerDEUTeam NetApp – Endura06:33:57  +  00:26:47=36,172 
140 GERMarcel KittelNLDTeam Giant - Shimano06:33:57  +  00:26:47=36,172 
141 NEDTom VeelersNLDTeam Giant - Shimano06:33:57  +  00:26:47=36,172 
142 SLOSimon SpilakRUSTeam Katusha06:33:57  +  00:26:47=36,172 
143 ITAElia VivianiITACannondale Pro Cycling06:33:57  +  00:26:47=36,172 
144 ESPRubén PlazaESPMovistar Team06:33:57  +  00:26:47=36,172 
145 CHNCheng JiNLDTeam Giant - Shimano06:33:57  +  00:26:47=36,172 
146 KAZMaxim IglinskiyKAZAstana Pro Team06:33:57  +  00:26:47=36,172 
147 UKRAndriy GrivkoKAZAstana Pro Team06:33:57  +  00:26:47=36,172 
148 FRAAdrien PetitFRACofidis – Solutions Crédits06:33:57  +  00:26:47=36,172 
149 DENMichael MørkøvRUSTinkoff Saxo06:33:57  +  00:26:47=36,172 
150 ITADaniele BennatiRUSTinkoff Saxo06:33:57  +  00:26:47=36,172 
151 ITAMarco MarcatoITACannondale Pro Cycling06:33:57  +  00:26:47=36,172 
152 POLMaciej BodnarITACannondale Pro Cycling06:33:57  +  00:26:47=36,172 
153 FRAJean-Marc BideauFRABretagne - Séché Environnement06:33:57  +  00:26:47=36,172 
154 AUSMark RenshawBELOmega Pharma – Quick Step06:33:57  +  00:26:47=36,172 
155 ITAMatteo TrentinBELOmega Pharma – Quick Step06:33:57  +  00:26:47=36,172 
156 FRAJean-Marc MarinoITACannondale Pro Cycling06:33:57  +  00:26:47=36,172 
157 NZLJack BauerUSAGarmin Sharp06:33:57  +  00:26:47=36,172 
158 NEDSebastian LangeveldUSAGarmin Sharp06:33:57  +  00:26:47=36,172 
159 USADanny PateGBRSky Procycling06:33:57  +  00:26:47=36,172 
160 ITADavide CimolaiITALampre-Merida06:33:57  +  00:26:47=36,172 
161 SUIReto HollensteinCHEIAM Cycling06:33:57  +  00:26:47=36,172 
162 FRAJulien SimonFRACofidis – Solutions Crédits06:33:57  +  00:26:47=36,172 
163 FRAArnaud DémareFRAFDJ.fr06:33:57  +  00:26:47=36,172 
164 URSRamunas NavardauskasUSAGarmin Sharp06:33:57  +  00:26:47=36,172 
165 RUSVladimir IsaichevRUSTeam Katusha06:33:57  +  00:26:47=36,172 
166 ITALuca PaoliniRUSTeam Katusha06:33:57  +  00:26:47=36,172 
167 ITAAlessandro De MarchiITACannondale Pro Cycling06:33:57  +  00:26:47=36,172 
168 KAZDmitriy GruzdevKAZAstana Pro Team06:35:09  +  00:27:59=36,062 
169 ITAAlessandro VanottiKAZAstana Pro Team06:36:53  +  00:29:43=35,905 

Withdrawls: 2
 
Rider
Team
Reason
111  PORRui CostaITALampre-MeridaDid not start
189  ENGSimon YatesAUSOrica - GreenEDGEDid not start

Todays birthdays.

1886  Jean Meziere
1887  Pierre Herbette
1887  Octave Lapize
1898  Felix Manthey
1920  René Biever
1920  Georges Ramoulux
1928  René Marigil
1940  Jean-Pierre Genet
1944  Giannino Bianco
1945  Eddy Cael
1950  Bert Pronk
1954  Marc Dierickx
1961  Chris Carmichael
1973  Levi Leipheimer